Date String (YYYY-MM-DD hh:mm:ss) UTC,Instrument flags,Ambient pressure (hPa),Sample flow (lpm),Bypass flow (lpm),Sample temperature (°C),Ambient temperature (°C),ASC tube jacket temperature (°C),LED temperature (°C),Box temperature (°C),Sample RH (%),Span deviation,Mass concentration (μg/m³),Mass concentration (μg/m³),Mass concentration (μg/m³)
DateTimeUTC,F1_M11,P_M11,Q1_M11,Q2_M11,T1_M11,T2_M11,T3_M11,T4_M11,T5_M11,U1_M11,ZSPAN_M11,X0_M11,X2_M11,X1_M11
2021-08-30 16:00:00,,0826.5,4.99,0.00,29.8,28.6,00.0,38.8,31.6,26.7,0002.3,0032.36,0022.41,0021.10
2021-08-30 16:01:00,,0826.5,5.00,0.00,29.8,28.8,00.0,38.9,31.7,26.7,0002.2,0031.80,0022.40,0021.09
2021-08-30 16:02:00,,0826.4,5.02,0.00,29.9,28.9,00.0,38.9,31.8,26.7,0002.0,0032.18,0022.36,0021.09
2021-08-30 16:03:00,,0826.5,5.00,0.00,29.9,29.0,00.0,38.9,31.8,26.3,0002.0,0032.78,0022.37,0021.11
2021-08-30 16:04:00,,0826.5,5.00,0.00,30.0,29.1,00.0,38.9,31.9,26.5,0001.8,0032.87,0022.47,0021.19
2021-08-30 16:05:00,,0826.5,5.00,0.00,30.0,29.0,00.0,38.9,31.9,26.4,0001.7,0032.76,0022.51,0021.26
2021-08-30 16:06:00,,0826.5,5.01,0.00,30.0,27.6,00.0,38.9,31.5,26.3,0001.8,0032.87,0022.61,0021.38
2021-08-30 16:07:00,,0826.4,4.99,0.00,29.8,26.4,00.0,38.9,31.2,26.9,0001.8,0033.67,0022.72,0021.49
2021-08-30 16:08:00,,0826.4,5.01,0.00,29.8,26.6,00.0,38.9,31.2,27.1,0001.6,0034.35,0022.76,0021.56
2021-08-30 16:09:00,,0826.4,5.00,0.00,29.7,27.0,00.0,38.9,31.3,27.3,0001.6,0036.10,0022.82,0021.63
2021-08-30 16:10:00,,0826.4,4.99,0.00,29.7,27.4,00.0,38.8,31.3,27.1,0001.5,0035.47,0022.87,0021.69
2021-08-30 16:11:00,,0826.4,5.01,0.00,29.7,27.8,00.0,38.8,31.4,27.2,0001.5,0034.55,0022.93,0021.74
2021-08-30 16:12:00,,0826.4,5.00,0.00,29.7,28.1,00.0,38.8,31.5,25.8,0001.6,0034.84,0023.00,0021.80
2021-08-30 16:13:00,,0826.4,5.01,0.00,29.8,28.3,00.0,38.8,31.6,26.6,0001.5,0034.48,0023.11,0021.87
2021-08-30 16:14:00,,0826.4,5.01,0.00,29.8,28.5,00.0,38.8,31.6,27.5,0001.4,0034.01,0023.09,0021.85
2021-08-30 16:15:00,,0826.4,5.00,0.00,29.8,28.7,00.0,38.8,31.7,28.4,0001.5,0033.82,0023.06,0021.80
2021-08-30 16:16:00,,0826.5,5.00,0.00,29.9,28.8,00.0,38.9,31.7,28.0,0001.5,0034.56,0023.05,0021.73
2021-08-30 16:17:00,,0826.5,4.99,0.00,29.9,29.0,00.0,38.9,31.8,27.9,0001.6,0035.42,0022.97,0021.63
2021-08-30 16:18:00,,0826.5,5.01,0.00,30.0,28.7,00.0,38.9,31.7,28.1,0001.8,0034.65,0022.87,0021.54
2021-08-30 16:19:00,,0826.4,5.01,0.00,29.9,27.2,00.0,38.9,31.3,28.3,0001.9,0034.26,0022.82,0021.45
2021-08-30 16:20:00,,0826.3,4.99,0.00,29.7,26.3,00.0,38.9,31.1,28.5,0001.9,0033.42,0022.71,0021.32
2021-08-30 16:21:00,,0826.3,5.00,0.00,29.7,26.6,00.0,38.9,31.2,28.7,0001.9,0032.95,0022.57,0021.18
2021-08-30 16:22:00,,0826.2,5.01,0.00,29.6,27.0,00.0,38.8,31.2,28.8,0002.0,0032.67,0022.43,0021.07
2021-08-30 16:23:00,,0826.2,4.99,0.00,29.6,27.4,00.0,38.8,31.3,28.9,0001.9,0032.52,0022.33,0020.93
2021-08-30 16:24:00,,0826.3,4.99,0.00,29.6,27.8,00.0,38.8,31.4,28.7,0001.9,0032.21,0022.12,0020.78
2021-08-30 16:25:00,,0826.3,5.00,0.00,29.7,28.1,00.0,38.8,31.4,29.1,0002.0,0032.58,0022.06,0020.69
2021-08-30 16:26:00,,0826.2,5.00,0.00,29.7,28.3,00.0,38.8,31.5,28.6,0001.9,0032.73,0021.95,0020.61
2021-08-30 16:27:00,,0826.3,5.00,0.00,29.8,28.5,00.0,38.8,31.6,28.2,0001.9,0032.67,0021.83,0020.54
2021-08-30 16:28:00,,0826.3,5.00,0.00,29.8,28.7,00.0,38.8,31.7,27.8,0002.2,0032.33,0021.82,0020.52
2021-08-30 16:29:00,,0826.4,4.99,0.00,29.8,28.8,00.0,38.8,31.7,28.9,0002.1,0032.66,0021.81,0020.49
2021-08-30 16:30:00,,0826.4,4.99,0.00,29.9,28.8,00.0,38.8,31.7,29.3,0001.9,0032.77,0021.79,0020.45
2021-08-30 16:31:00,,0826.4,5.00,0.00,29.8,27.6,00.0,38.8,31.4,28.7,0002.0,0032.08,0021.84,0020.50
2021-08-30 16:32:00,,0826.4,5.00,0.00,29.7,26.3,00.0,38.8,31.1,28.9,0002.1,0032.79,0021.93,0020.58
2021-08-30 16:33:00,,0826.5,5.01,0.00,29.6,26.4,00.0,38.8,31.1,29.2,0002.0,0033.23,0022.09,0020.67
2021-08-30 16:34:00,,0826.4,5.00,0.00,29.6,26.8,00.0,38.8,31.2,28.9,0002.1,0033.31,0022.16,0020.78
2021-08-30 16:35:00,,0826.5,5.00,0.00,29.5,27.3,00.0,38.7,31.2,28.4,0002.2,0033.51,0022.25,0020.83
2021-08-30 16:36:00,,0826.5,4.99,0.00,29.6,27.6,00.0,38.7,31.3,28.0,0002.2,0033.20,0022.28,0020.92
2021-08-30 16:37:00,,0826.5,5.00,0.00,29.6,28.0,00.0,38.7,31.4,26.8,0002.2,0033.56,0022.47,0021.08
2021-08-30 16:38:00,,0826.5,5.00,0.00,29.6,28.2,00.0,38.7,31.4,26.9,0002.4,0033.05,0022.67,0021.25
2021-08-30 16:39:00,,0826.5,5.01,0.00,29.7,28.4,00.0,38.7,31.5,27.7,0002.2,0032.12,0022.74,0021.34
2021-08-30 16:40:00,,0826.3,5.00,0.00,29.7,28.6,00.0,38.7,31.6,27.6,0002.2,0031.92,0022.80,0021.41
2021-08-30 16:41:00,,0826.1,5.00,0.00,29.8,28.8,00.0,38.7,31.6,27.5,0002.2,0031.87,0022.88,0021.49
2021-08-30 16:42:00,,0826.2,4.99,0.00,29.8,28.9,00.0,38.8,31.7,27.1,0002.1,0032.35,0022.94,0021.56
2021-08-30 16:43:00,,0826.2,4.99,0.00,29.8,28.7,00.0,38.8,31.7,26.7,0001.9,0031.90,0023.01,0021.66
2021-08-30 16:44:00,,0826.2,4.99,0.00,29.8,27.2,00.0,38.8,31.3,26.6,0001.9,0032.07,0023.02,0021.73
2021-08-30 16:45:00,,0826.4,5.00,0.00,29.6,26.2,00.0,38.8,31.0,26.1,0002.0,0032.10,0023.12,0021.83
2021-08-30 16:46:00,,0826.2,5.00,0.00,29.6,26.5,00.0,38.7,31.1,26.7,0002.0,0032.28,0023.26,0021.99
2021-08-30 16:47:00,,0826.1,5.00,0.00,29.5,26.9,00.0,38.7,31.1,26.2,0002.1,0032.61,0023.37,0022.08
2021-08-30 16:48:00,,0826.2,5.01,0.00,29.5,27.3,00.0,38.7,31.2,26.8,0002.2,0031.98,0023.35,0022.11
2021-08-30 16:49:00,,0826.2,5.00,0.00,29.5,27.7,00.0,38.7,31.3,26.2,0002.0,0032.04,0023.33,0022.12
2021-08-30 16:50:00,,0826.1,5.02,0.00,29.6,28.0,00.0,38.7,31.4,26.6,0001.9,0032.20,0023.39,0022.21
2021-08-30 16:51:00,,0826.2,5.00,0.00,29.6,28.3,00.0,38.7,31.4,26.4,0001.9,0032.19,0023.55,0022.35
2021-08-30 16:52:00,,0826.1,5.01,0.00,29.7,28.5,00.0,38.7,31.5,25.6,0001.9,0032.27,0023.71,0022.52
2021-08-30 16:53:00,,0826.2,5.00,0.00,29.7,28.6,00.0,38.7,31.6,25.0,0002.0,0032.12,0023.88,0022.68
2021-08-30 16:54:00,,0826.1,5.00,0.00,29.8,28.8,00.0,38.7,31.6,24.9,0002.0,0032.32,0024.04,0022.82
2021-08-30 16:55:00,,0826.2,4.99,0.00,29.8,28.8,00.0,38.7,31.7,23.7,0001.9,0032.52,0024.23,0023.00
2021-08-30 16:56:00,,0826.2,5.00,0.00,29.8,27.6,00.0,38.7,31.3,23.9,0001.8,0033.41,0024.49,0023.20
2021-08-30 16:57:00,,0826.2,5.00,0.00,29.6,26.2,00.0,38.7,31.0,24.0,0001.7,0033.69,0024.65,0023.33
2021-08-30 16:58:00,,0826.2,5.01,0.00,29.5,26.3,00.0,38.7,31.0,23.9,0001.8,0033.96,0024.81,0023.50
2021-08-30 16:59:00,,0826.2,5.00,0.00,29.5,26.7,00.0,38.7,31.1,24.0,0001.8,0034.68,0025.04,0023.70
